Zurück zum Katalog

STARLINK-3935

AktivKommunikationVLEO
NORAD 52549·PAYLOAD·🇺🇸 United States

Gestartet May 13, 2022 von Vandenberg Space Force Base

Loading…

Nächste Überflüge (nächste 24 Stunden)

TLE

AktuellSource: CelesTrak SupGP

Epoche: Sep 15, 2026, 02:39 UTC

1 52549C 22051S   26258.11090278  .00048984  00000+0  14019-2 0  2583
2 52549  53.1580 347.0457 0001144  91.9504 138.7021 15.35365663    13

Verfolge STARLINK-3935 in Echtzeit mit AllMySat

Download on the App Store